Regional Weather Roundup
Issued by NWS

Home | Current Version | Previous Version | Text Only | Print | Product List | Glossary On
Versions: 1 2 3 4 5 6 7 8 9 10 11 12 13 14 15 16 17 18 19 20 21 22 23 24 25 26 27 28 29 30 31 32 33 34 35 36 37 38 39 40 41 42 43 44 45 46 47 48 49
000
ASUS43 KDMX 291807
RWRIA

WEATHER ROUNDUP FOR IOWA
NATIONAL WEATHER SERVICE DES MOINES IA
100 PM CDT MON SEP 29 2014

NOTE: "FAIR" INDICATES FEW OR NO CLOUDS BELOW 12,000 FEET WITH NO
SIGNIFICANT WEATHER AND/OR OBSTRUCTIONS TO VISIBILITY.

* - THESE STATIONS ARE NOT NWS STATIONS...THUS NOT UNDER NWS
QUALITY CONTROL.  THEY ALSO DO NOT REPORT WEATHER SUCH
AS PRECIPITATION OR FOG.

IAZ001>003-012>014-020>022-031>034-043>046-291900-
   NORTHWEST IOWA

CITY           SKY/WX    TMP DP  RH WIND       PRES   REMARKS
CARROLL *      PTSUNNY   77  63  61 VRB7      30.05F
CHEROKEE *     PTSUNNY   67  63  87 N8        30.07F
DENISON *      MOSUNNY   75  63  64 N10       30.03F
LE MARS *      SUNNY     72  63  73 NE8       30.07F
ORANGE CITY *  PTSUNNY   70  61  73 E3        30.07F
SHELDON *      MOSUNNY   68  59  73 NE9G17    30.07F
SIOUX CITY     MOSUNNY   78  65  63 CALM      30.04F HX  80
6HR MIN TEMP:  65; 6HR MAX TEMP:  79;

SPENCER        CLOUDY    63  58  83 N8        30.09F
6HR MIN TEMP:  58; 6HR MAX TEMP:  64;

STORM LAKE *   PTSUNNY   64  59  82 NE6       30.08F
$$

IAZ055>058-069>071-079>083-090>094-291900-
   SOUTHWEST IOWA

CITY           SKY/WX    TMP DP  RH WIND       PRES   REMARKS
ATLANTIC *     CLOUDY    79  57  47 SW6G13    30.05F HX  80
AUDUBON *      MOSUNNY   82  54  36 SW5       30.06F HX  81
CLARINDA *     SUNNY     81  57  44 S5        30.07F HX  81
COUNCIL BLFS * SUNNY     81  61  50 VRB5      30.05F HX  81
CRESTON *      PTSUNNY   79  59  50 SW8       30.07F HX  80
HARLAN  *      MOSUNNY   82  59  44 SW8G16    30.08F HX  82
LAMONI         PTSUNNY   81  58  45 W8        30.06F HX  81
6HR MIN TEMP:  57; 6HR MAX TEMP:  81;

RED OAK *      SUNNY     81  59  47 CALM      30.06F HX  81
SHENANDOAH *   MOSUNNY   81  61  50 SW8       30.06F HX  81
$$

IAZ047>049-059>061-072>074-084-291900-
   CENTRAL IOWA

CITY           SKY/WX    TMP DP  RH WIND       PRES   REMARKS
AMES           MOSUNNY   79  62  56 NW9       30.04F HX  80
6HR MIN TEMP:  55; 6HR MAX TEMP:  80;

ANKENY *       MOSUNNY   79  61  53 SW7       30.04S HX  80
CHARITON *     SUNNY     81  61  50 SW8       30.06S HX  81
DES MOINES     CLOUDY    80  58  46 SW9       30.04F HX  80
6HR MIN TEMP:  59; 6HR MAX TEMP:  81;

GRINNELL*      MOSUNNY   80  56  44 NW5       30.04F HX  80
KNOXVILLE *    MOSUNNY   81  57  44 VRB6      30.03F HX  81
MARSHALLTOWN   MOSUNNY   77  60  55 W7        30.02
6HR MIN TEMP:  53; 6HR MAX TEMP:  79;

PELLA *        MOSUNNY   80  59  48 W5        30.05F HX  81
PERRY *          N/A     79  59  50 NW5       30.05F HX  80
$$

IAZ004>006-015-016-023>025-035-036-291900-
   NORTH CENTRAL IOWA

CITY           SKY/WX    TMP DP  RH WIND       PRES   REMARKS
ALGONA *       CLOUDY    63  61  94 N8        30.09S
CLARION *      SUNNY     72  61  68 VRB7G14   30.06S
ESTHERVILLE    CLOUDY    60  58  92 N14       30.10S
6HR MIN TEMP:  57; 6HR MAX TEMP:  60;

FORT DODGE *   MOSUNNY   73  61  64 N3        30.07F
MASON CITY     CLOUDY    65  60  84 N9        30.08S HAZE
6HR MIN TEMP:  54; 6HR MAX TEMP:  68;

FOREST CITY *  CLOUDY    63  63 100 N7        30.07F FOG
IOWA FALLS *     N/A     77  61  57 W6        30.05F
$$

IAZ007>011-017>019-026>030-037>042-050>054-066-291900-
   NORTHEAST IOWA

CITY           SKY/WX    TMP DP  RH WIND       PRES   REMARKS
CHARLES CITY * SUNNY     75  61  60 VRB6G12   30.04F
CLINTON *      PTSUNNY   81  57  44 NW6       30.04F HX  81
DECORAH *      SUNNY     75  59  57 NW8       30.03S
MONTICELLO *   SUNNY     81  57  44 W8G16     30.02F HX  81
OELWEIN *      SUNNY     81  59  47 W8        30.02F HX  81
WATERLOO       MOSUNNY   81  59  47 W8        30.01F HX  81
6HR MIN TEMP:  52; 6HR MAX TEMP:  81;

$$

IAZ064-065-067-068-078-291900-
   EAST CENTRAL IOWA

CITY           SKY/WX    TMP DP  RH WIND       PRES   REMARKS
IOWA CITY      MOSUNNY   81  58  45 VRB5      30.04F HX  81
6HR MIN TEMP:  55; 6HR MAX TEMP:  81;

MT. PLEASANT * MOSUNNY   81  55  40 W9        30.04F HX  81
MUSCATINE *    SUNNY     82  57  42 W9        30.03F HX  82
$$

IAZ062-063-075>077-085>089-095>099-291900-
   SOUTHEAST IOWA

CITY           SKY/WX    TMP DP  RH WIND       PRES   REMARKS
BURLINGTON     SUNNY     82  59  45 VRB6      30.04F HX  82
6HR MIN TEMP:  55; 6HR MAX TEMP:  82;

FAIRFIELD *    MOSUNNY   81  55  41 VRB3      30.04F HAZE    HX  80
FORT MADISON * MOSUNNY   82  55  39 CALM      30.05F HX  82
KEOKUK *       MOSUNNY   81  61  50 VRB6      30.03F HX  81
OSKALOOSA *      N/A     81  56  41 NW9       30.04F HX  81
CENTERVILLE *  SUNNY     82  59  44 SW3       30.07F HX  82
OTTUMWA        SUNNY     81  59  47 W8        30.04S HX  81
6HR MIN TEMP:  54; 6HR MAX TEMP:  81;

WASHINGTON *   MOSUNNY   82  57  42 SW7       30.04F HX  82
$$

ABBREVIATIONS USED IN REMARKS
   TC - TEMPERATURES IN CELSIUS
  WCI - WIND CHILL INDEX
   HX - HEAT INDEX
  VSB - VISIBILITY
$$



USA.gov is the U.S. government's official web portal to all federal, state and local government web resources and services.